TimeEDT,TemperatureF,Dew PointF,Humidity,Sea Level PressureIn,VisibilityMPH,Wind Direction,Wind SpeedMPH,Gust SpeedMPH,PrecipitationIn,Events,Conditions,WindDirDegrees,DateUTC
12:15 AM,61.3,52.5,73,30.36,10.0,Calm,Calm,-,N/A,,Scattered Clouds,0,2013-08-25 04:15:00
12:35 AM,62.6,52.7,70,30.36,10.0,Calm,Calm,-,N/A,,Scattered Clouds,0,2013-08-25 04:35:00
12:55 AM,58.1,52.0,80,30.36,10.0,Calm,Calm,-,N/A,,Scattered Clouds,0,2013-08-25 04:55:00
1:15 AM,60.1,52.3,76,30.36,10.0,Calm,Calm,-,N/A,,Scattered Clouds,0,2013-08-25 05:15:00
1:35 AM,58.8,52.0,78,30.36,10.0,Calm,Calm,-,N/A,,Scattered Clouds,0,2013-08-25 05:35:00
1:55 AM,59.0,52.3,79,30.36,10.0,Calm,Calm,-,N/A,,Clear,0,2013-08-25 05:55:00
2:15 AM,57.2,52.7,85,30.36,10.0,Calm,Calm,-,N/A,,Clear,0,2013-08-25 06:15:00
2:35 AM,57.2,52.7,85,30.36,10.0,Calm,Calm,-,N/A,,Clear,0,2013-08-25 06:35:00
2:55 AM,57.2,52.5,84,30.37,10.0,Calm,Calm,-,N/A,,Clear,0,2013-08-25 06:55:00
3:15 AM,54.9,51.8,89,30.35,10.0,Calm,Calm,-,N/A,,Clear,0,2013-08-25 07:15:00
3:35 AM,56.5,52.9,88,30.36,10.0,Calm,Calm,-,N/A,,Clear,0,2013-08-25 07:35:00
3:55 AM,55.0,51.3,87,30.36,10.0,Calm,Calm,-,N/A,,Scattered Clouds,0,2013-08-25 07:55:00
4:15 AM,55.0,52.0,89,30.37,10.0,Calm,Calm,-,N/A,,Clear,0,2013-08-25 08:15:00
4:35 AM,52.7,50.9,94,30.37,10.0,Calm,Calm,-,N/A,,Clear,0,2013-08-25 08:35:00
4:55 AM,52.7,51.4,95,30.37,10.0,Calm,Calm,-,N/A,,Clear,0,2013-08-25 08:55:00
5:15 AM,54.1,52.3,94,30.39,10.0,Calm,Calm,-,N/A,,Clear,0,2013-08-25 09:15:00
5:35 AM,53.2,51.8,95,30.39,10.0,Calm,Calm,-,N/A,,Clear,0,2013-08-25 09:35:00
5:53 AM,53.6,51.8,94,30.39,10.0,Calm,Calm,-,N/A,,Clear,0,2013-08-25 09:53:00
7:53 AM,55.4,53.6,94,30.42,10.0,Calm,Calm,-,N/A,,Clear,0,2013-08-25 11:53:00
8:53 AM,60.8,55.4,82,30.42,10.0,Calm,Calm,-,N/A,,Clear,0,2013-08-25 12:53:00
9:53 AM,64.4,55.4,73,30.42,10.0,Calm,Calm,-,N/A,,Clear,0,2013-08-25 13:53:00
10:53 AM,71.6,57.2,60,30.41,10.0,Calm,Calm,-,N/A,,Clear,0,2013-08-25 14:53:00
11:53 AM,77.0,55.4,47,30.59,10.0,SW,5.8,-,N/A,,Clear,220,2013-08-25 15:53:00
12:53 PM,77.0,51.8,41,30.38,10.0,SSW,8.1,-,N/A,,Partly Cloudy,200,2013-08-25 16:53:00
1:53 PM,78.8,53.6,42,30.35,10.0,SSW,5.8,-,N/A,,Partly Cloudy,200,2013-08-25 17:53:00
2:53 PM,80.6,53.6,39,30.34,10.0,SW,8.1,-,N/A,,Scattered Clouds,230,2013-08-25 18:53:00
3:53 PM,80.6,53.6,39,30.32,10.0,SW,6.9,-,N/A,,Scattered Clouds,220,2013-08-25 19:53:00
4:53 PM,80.6,53.6,39,30.29,10.0,SW,6.9,-,N/A,,Scattered Clouds,220,2013-08-25 20:53:00
5:53 PM,80.6,53.6,39,30.28,10.0,SSW,6.9,-,N/A,,Scattered Clouds,210,2013-08-25 21:53:00
6:53 PM,77.0,57.2,50,30.27,10.0,SSW,6.9,-,N/A,,Scattered Clouds,210,2013-08-25 22:53:00
7:53 PM,73.4,59.0,61,30.26,10.0,SSW,6.9,-,N/A,,Scattered Clouds,200,2013-08-25 23:53:00
8:53 PM,71.6,59.0,64,30.27,10.0,SW,4.6,-,N/A,,Partly Cloudy,220,2013-08-26 00:53:00
9:15 PM,68.9,58.1,68,30.26,10.0,SW,4.6,-,N/A,,Clear,220,2013-08-26 01:15:00
9:35 PM,68.2,58.1,70,30.27,10.0,Calm,Calm,-,N/A,,Scattered Clouds,0,2013-08-26 01:35:00
9:55 PM,68.5,58.1,69,30.28,10.0,West,4.6,-,N/A,,Clear,270,2013-08-26 01:55:00
10:15 PM,67.5,58.5,73,30.27,10.0,WSW,3.5,-,N/A,,Scattered Clouds,240,2013-08-26 02:15:00
10:35 PM,65.5,58.8,79,30.28,10.0,SW,4.6,-,N/A,,Clear,230,2013-08-26 02:35:00
10:55 PM,68.0,58.1,71,30.28,10.0,WSW,5.8,-,N/A,,Clear,240,2013-08-26 02:55:00
11:15 PM,64.9,57.7,77,30.27,10.0,SSW,3.5,-,N/A,,Clear,200,2013-08-26 03:15:00
11:35 PM,65.5,58.1,77,30.27,10.0,Calm,Calm,-,N/A,,Clear,0,2013-08-26 03:35:00
11:55 PM,65.5,58.6,79,30.26,10.0,WSW,4.6,-,N/A,,Clear,240,2013-08-26 03:55:00